Aérodrome :
LOGIN :

S'inscrire | Disclaimer

   EN    FR    IT 

 










Légende :    VFR   VFR Marginal   IFR   IFR Intensif   IFR Très Intensif
Visi : 
Plafond : 
>= 8 km
>= 3000ft
5 à 8 km
1000 à 3000 ft
1500m à 5 km
500 à 1000 ft
800 à 1500m
200 à 500 ft
< 800m
< 200 ft
Symboles :   Orages  Brouillard  Fortes neiges  Fortes précipitations  Vent > 20 kt
SIGMETs :   Divers  Orages  Givrage  Turbulence  Onde Orograph.  Cendres Volcan.







- Altitude de l'aérodrome : 302 ft
- Code IATA : CGN


EDDK - Cologne Bonn

DERNIER METAR :
  • 170150Z 12004KT 090V180 CAVOK 15/11 Q1022 NOSIG

METARs EXPIRÉS :
  • 170120Z 14008KT CAVOK 15/12 Q1022 NOSIG
  • 170050Z 14007KT CAVOK 15/12 Q1022 NOSIG
  • 170020Z 12005KT CAVOK 15/12 Q1022 NOSIG
  • 162350Z 13005KT 100V160 CAVOK 16/12 Q1022 NOSIG
  • 162320Z 13005KT CAVOK 16/12 Q1022 NOSIG

TAF TAF EDDK
Valide du 17 à 00h jusqu'au 18 à 06h UTC


162300Z 1700/1806 13007KT CAVOK
BECMG 1704/1707 VRB03KT
Pas de NOTAMs connus pour ce terrain.



MET'MAP, la Météo Aéronautique d'un coup d'oeil ! - Copyright ORBIFLY Décembre 2007 - Disclaimer

ORBIFLY MET'MAP TEAM :

Programmation & Développement : Alexandra Zaïnal
Conception & Développement : Baudouin d'Aumeries
Co-Programmation & Développement : Marc-Olivier Méhu
Soutien technique & logistique : Manuel Goepfert

Contact : metmap@orbifly.com




SOURCES & CREDITS :

   NOAA